Location: Newark
(45.6000°N, 12.8833°E)
Time: 03:28:41
(UTC+00:00)

A-11 Canister half - All Passes

Search period start: 18 November 2019 00:00
Search period end: 28 November 2019 00:00
Orbit: 1527 x 1682 km, 47.3° (Epoch: 16 November)

Date Brightness Start Highest point End Pass type
(mag) Time Alt. Az. Time Alt. Az. Time Alt. Az.
18 Nov - 08:54:57 10° SSE 09:01:29 20° SE 09:07:55 10° E daylight
18 Nov - 10:55:20 10° SW 11:05:03 57° SE 11:14:28 10° ENE daylight
18 Nov - 12:59:56 10° WSW 13:09:56 86° NNW 13:19:36 10° E daylight
18 Nov - 15:05:33 10° WNW 15:15:23 87° N 15:24:54 10° ESE daylight
18 Nov - 17:10:54 10° WNW 17:20:06 53° SW 17:29:02 10° SE visible
18 Nov - 19:18:03 10° W 19:23:20 16° SW 19:28:33 10° SSW visible
19 Nov - 08:33:42 10° SSE 08:39:56 19° SE 08:46:04 10° E daylight
19 Nov - 10:33:45 10° SW 10:43:25 55° SE 10:52:50 10° ENE daylight
19 Nov - 12:38:15 10° WSW 12:48:16 87° NNW 12:57:58 10° ENE daylight
19 Nov - 14:43:51 10° WNW 14:53:45 86° NNE 15:03:16 10° ESE daylight
19 Nov - 16:49:13 10° WNW 16:58:30 55° SW 17:07:31 10° SE visible
19 Nov - 18:56:09 10° W 19:01:48 18° SW 19:07:24 10° SSW visible
20 Nov - 08:12:29 10° SSE 08:18:23 17° SE 08:24:11 10° E daylight
20 Nov - 10:12:10 10° SW 10:21:48 53° SE 10:31:11 10° ENE daylight
20 Nov - 12:16:33 10° WSW 12:26:36 88° NNW 12:36:19 10° ENE daylight
20 Nov - 14:22:10 10° W 14:32:05 85° N 14:41:38 10° E daylight
20 Nov - 16:27:32 10° WNW 16:36:54 57° SW 16:46:00 10° SE visible
20 Nov - 18:34:15 10° W 18:40:16 19° SW 18:46:13 10° SSW visible
21 Nov - 07:51:19 10° SSE 07:56:49 16° SE 08:02:16 10° E daylight
21 Nov - 09:50:36 10° SW 10:00:11 51° SE 10:09:32 10° ENE daylight
21 Nov - 11:54:53 10° WSW 12:04:57 89° N 12:14:41 10° ENE daylight
21 Nov - 14:00:29 10° W 14:10:26 85° N 14:20:01 10° E daylight
21 Nov - 16:05:52 10° WNW 16:15:18 59° SSW 16:24:27 10° SE visible
21 Nov - 18:12:24 10° W 18:18:45 20° SW 18:25:00 10° S visible
22 Nov - 07:30:13 10° SSE 07:35:17 15° ESE 07:40:18 10° E daylight
22 Nov - 09:29:02 10° SSW 09:38:34 49° SE 09:47:53 10° ENE daylight
22 Nov - 11:33:11 10° WSW 11:43:16 90° SSE 11:53:03 10° ENE daylight
22 Nov - 13:38:48 10° W 13:48:46 84° N 13:58:22 10° E daylight
22 Nov - 15:44:11 10° WNW 15:53:42 61° SSW 16:02:54 10° SE visible
22 Nov - 17:50:34 10° W 17:57:13 22° SW 18:03:45 10° S visible
23 Nov - 07:09:10 10° SSE 07:13:44 14° ESE 07:18:15 10° E daylight
23 Nov - 09:07:29 10° SSW 09:16:57 47° SE 09:26:13 10° ENE daylight
23 Nov - 11:11:31 10° WSW 11:21:37 89° SSE 11:31:24 10° ENE daylight
23 Nov - 13:17:06 10° W 13:27:06 83° N 13:36:44 10° E daylight
23 Nov - 15:22:30 10° WNW 15:32:05 63° SSW 15:41:21 10° SE daylight
23 Nov - 17:28:45 10° W 17:35:40 23° SW 17:42:28 10° S visible
24 Nov - 06:48:13 10° SE 06:52:11 13° ESE 06:56:07 10° E daylight
24 Nov - 08:45:57 10° SSW 08:55:20 45° SE 09:04:33 10° ENE daylight
24 Nov - 10:49:50 10° WSW 10:59:57 87° SSE 11:09:46 10° ENE daylight
24 Nov - 12:55:25 10° W 13:05:26 83° N 13:15:05 10° E daylight
24 Nov - 15:00:50 10° WNW 15:10:29 65° SSW 15:19:48 10° SE daylight
24 Nov - 17:06:57 10° W 17:14:08 24° SW 17:21:10 10° S visible
25 Nov - 06:27:26 10° SE 06:30:39 12° ESE 06:33:51 10° ESE daylight
25 Nov - 08:24:25 10° SSW 08:33:44 44° SE 08:42:53 10° ENE daylight
25 Nov - 10:28:09 10° WSW 10:38:17 86° SSE 10:48:08 10° ENE daylight
25 Nov - 12:33:43 10° W 12:43:45 82° N 12:53:27 10° E daylight
25 Nov - 14:39:09 10° WNW 14:48:51 67° SSW 14:58:14 10° SE daylight
25 Nov - 16:45:10 10° W 16:52:35 26° SW 16:59:51 10° S visible
26 Nov - 06:06:57 10° SE 06:09:07 11° ESE 06:11:16 10° ESE daylight
26 Nov - 08:02:53 10° SSW 08:12:07 42° SE 08:21:13 10° ENE daylight
26 Nov - 10:06:29 10° WSW 10:16:37 84° SSE 10:26:29 10° ENE daylight
26 Nov - 12:12:00 10° W 12:22:05 82° N 12:31:48 10° E daylight
26 Nov - 14:17:28 10° WNW 14:27:14 70° SSW 14:36:39 10° SE daylight
26 Nov - 16:23:23 10° WNW 16:31:02 27° SW 16:38:30 10° S visible
27 Nov - 07:41:23 10° SSW 07:50:31 40° SE 07:59:31 10° ENE daylight
27 Nov - 09:44:49 10° WSW 09:54:57 83° SSE 10:04:51 10° ENE daylight
27 Nov - 11:50:19 10° W 12:00:25 82° N 12:10:09 10° E daylight
27 Nov - 13:55:47 10° WNW 14:05:37 72° SSW 14:15:04 10° SE daylight
27 Nov - 16:01:37 10° WNW 16:09:29 29° SW 16:17:09 10° S visible
